Location: Allie Creek
(37.5926°N, 89.8526°W)
Time: 12:56:25
(UTC+00:00)

ISS - Visible Passes

Search period start: 21 January 2026 00:00
Search period end: 31 January 2026 00:00
Orbit: 413 x 423 km, 51.6° (Epoch: 20 January)

Date Brightness Start Highest point End Pass type
(mag) Time Alt. Az. Time Alt. Az. Time Alt. Az.
25 Jan -1.4 00:44:04 10° NNW 00:45:07 14° N 00:45:07 14° N visible
25 Jan -1.5 23:56:31 10° N 23:57:45 12° NNE 23:59:00 10° NE visible
26 Jan -0.8 01:31:55 10° NW 01:32:11 12° NW 01:32:11 12° NW visible
27 Jan -2.5 00:43:57 10° NNW 00:46:24 28° NNE 00:46:24 28° NNE visible
27 Jan -2.2 23:56:01 10° NNW 23:58:36 20° NNE 00:00:43 12° ENE visible
28 Jan -1.3 01:32:18 10° WNW 01:33:40 22° WNW 01:33:40 22° WNW visible
29 Jan -3.9 00:44:00 10° NW 00:47:21 84° NE 00:48:11 48° ESE visible
29 Jan -3.4 23:55:48 10° NW 23:59:02 46° NE 00:02:16 10° ESE visible
30 Jan -1.0 01:33:23 10° W 01:35:31 16° SW 01:35:55 16° SW visible
